EDUSAT

Satellite information

Favourite Embed

Satellite Type and Status

PAYLOADIN ORBIT

Key statistics

Satellite EDUSAT at a glance.

Uptime

5011

Days in orbit

Revolutions

≈ 14.8

Per day

Orbit

SSO

Sun Synchronous Orbit

Inclination

98.3

Latest

Satellite identification and parameters

Extended collection of information and parameters for EDUSAT.

Object identification

Identified? True

Debris? False

Object name: EDUSAT

International designator: 2011-044A

Object number (NORAD): 37788

Object ID (CCSDS): 37788

Country: ITALY (IT)

Current information (Y/N): Y

RCS size: MEDIUM

Orbital parameters

Period: 97.599 minutes

Inclination: 98.3173 deg

SMA: 7021.922 km

Apoapsis: 668.185 km

Periapsis: 619.389 km

RAAN: 8.1114 deg

Eccentricy: 0.0034746

Argument of periapsis: 342.455 deg

Mean anomaly: 35.1343 deg

Mean motion: 14.75430486 rev/day

Mean motion (dot): 0.00001538 rev/day2

B* drag term: 0.00023244 1/REarth

Two-line elements (TLE)

Creation date: May 6, 2025, 3:54 a.m.

Reference frame: TEME

Reference center: EARTH

Epoch: May 5, 2025, 10:24 p.m. UTC

TLE line 0: 0 EDUSAT

TLE line 1: 1 37788U 11044A 25125.93357417 .00001538 00000-0 23244-3 0 9992

TLE line 2: 2 37788 98.3173 8.1114 0034746 342.4550 35.1343 14.75430486736454

Live tracking on map

Real-time ground track for satellite EDUSAT.

In-orbit conjunctions

There are no conjunctions computed for EDUSAT, at the moment. Check back to stay up to date, as we update our databases every day.

Go to all conjunctions

Associated space launch

EDUSAT was lifted into orbit during the mission ‘Dnepr 1 | Sich-2’, on board a Dnepr space rocket.

The launch took place on Aug. 17, 2011, 7:12 a.m. from 370/13.

For more information about the launch, click the button.

Launch to space Dnepr 1 | Sich-2
Dnepr 1 | Sich-2

Agency: N/A

Status: Launch Successful

Launch date: Aug. 17, 2011, 7:12 a.m. UTC

Rocket: Dnepr

Launch pad: 370/13

Location: Dombarovskiy, Russian Federation

...

Latest news about this satellite

There are no fresh news available about this satellite. Check back as we update our databases every day.


Newsletter sign-up

Weekly statistics, charts and insights to help you stay on top of the space industry.